Regional Weather Roundup
Issued by NWS

Home | Current Version | Previous Version | Text Only | Print | Product List | Glossary Off
Versions: 1 2 3 4 5 6 7 8 9 10 11 12 13 14 15 16 17 18 19 20 21 22 23 24 25 26 27 28 29 30 31 32 33 34 35 36 37 38 39 40 41 42 43 44 45 46 47 48 49 50

000
ASUS45 KPSR 210700
RWRAZ

PRELIMINARY ARIZONA REGIONAL HOURLY WEATHER ROUNDUP
NATIONAL WEATHER SERVICE PHOENIX AZ
1200 AM MST SUN SEP 21 2014

NOTE: FAIR INDICATES FEW OR NO CLOUDS BELOW 12,000 FEET WITH NO
SIGNIFICANT WEATHER AND/OR OBSTRUCTIONS TO VISIBILITY.

AZZ001>003-036-210800-
NORTHWEST ARIZONA

CITY           SKY/WX    TMP DP  RH WIND       PRES   REMARKS
KINGMAN        MOCLDY    77  56  48 S9        29.99S
$$

AZZ004>008-015-016-018-210800-
NORTH CENTRAL ARIZONA

CITY           SKY/WX    TMP DP  RH WIND       PRES   REMARKS
GRAND CANYON   CLOUDY    57  53  86 CALM      30.24R
PRESCOTT       CLOUDY    71  55  56 SE5       30.14S
FLAGSTAFF      MOCLDY    59  54  83 SW3       30.29R
PAYSON         PTCLDY    64  59  82 CALM      30.17F
PAGE           CLOUDY    75  52  44 N5        30.09R
$$

AZZ009>014-017-210800-
NORTHEAST ARIZONA

CITY           SKY/WX    TMP DP  RH WIND       PRES   REMARKS
WINSLOW        NOT AVBL
SAINT JOHNS    CLOUDY    67  50  54 NW7       30.18S
WINDOW ROCK    CLEAR     65  48  54 S5        30.28
SHOW LOW       CLOUDY    59  52  77 E9        30.25R
$$

AZZ023-210800-
GREATER PHOENIX AREA

CITY           SKY/WX    TMP DP  RH WIND       PRES   REMARKS
PHOENIX        PTCLDY    88  64  44 E3        29.85S
DEER VALLEY    PTCLDY    85  66  53 SE3       29.88R
SCOTTSDALE     PTCLDY    85  67  54 CALM      29.90S
MESA-GATEWAY   MOCLDY    82  68  61 SE5       29.90S
$$

AZZ027-028-210800-
SOUTHWEST MARICOPA COUNTY AND PINAL COUNTY

CITY           SKY/WX    TMP DP  RH WIND       PRES   REMARKS
CASA GRANDE    CLEAR     81  64  57 CALM      29.90S
$$

AZZ503-504-507>509-210800-
SOUTHEAST ARIZONA

CITY           SKY/WX    TMP DP  RH WIND       PRES   REMARKS
TUCSON         CLEAR     78  66  66 S7        30.01R
DAVIS-MONTHAN  CLEAR     75  66  72 S8        29.99R
NOGALES        PTCLDY    68  64  87 CALM      30.08S
SIERRA VISTA   CLEAR     68  63  84 W9        30.13R
SAFFORD        PTCLDY    73  66  78 CALM      30.00R
$$

AZZ020-021-025-026-031-210800-
SOUTHWEST ARIZONA

CITY           SKY/WX    TMP DP  RH WIND       PRES   REMARKS
YUMA           CLEAR     84  61  45 SE9       29.79S
$$

CAZ031-033-041-043-047-048-061-210800-
SOUTHERN CALIFORNIA

CITY           SKY/WX    TMP DP  RH WIND       PRES   REMARKS
DOWNTOWN L.A.  CLEAR     67  61  81 CALM      29.94R
L.A. AIRPORT   PTCLDY    68  64  87 W9        29.94S
SAN DIEGO      PTCLDY    71  61  70 CALM      29.96S
BURBANK        CLEAR     67  58  72 CALM      29.94S
ONTARIO        CLEAR     67  59  75 SW6       29.95S
RIVERSIDE      CLEAR     67  60  78 W5        29.95S
PALM SPRINGS   CLEAR     85  54  34 NW12      29.82R
EL CENTRO NAS  CLEAR     85  49  28 W14       29.77S
IMPERIAL       CLEAR     82  51  34 W7        29.76S
BLYTHE         CLEAR     83  62  49 S13       29.79S
$$

NVZ020-UTZ003-210800-
SOUTHERN NEVADA-UTAH

CITY           SKY/WX    TMP DP  RH WIND       PRES   REMARKS
LAS VEGAS      NOT AVBL
SALT LAKE CITY MOCLDY    70  46  42 E3        30.08S
$$

NMZ009-TXZ055-210800-
NEW MEXICO-WEST TEXAS

CITY           SKY/WX    TMP DP  RH WIND       PRES   REMARKS
ALBUQUERQUE    MOCLDY    72  55  55 SE9       30.24R
EL PASO        PTCLDY    74  64  71 CALM      30.10R
$$


........................KEY........................
SKY/WX - SKY CONDITION/WEATHER
TMP    - TEMPERATURE IN FAHRENHEIT
DP     - DEW POINT IN FAHRENHEIT
RH     - RELATIVE HUMIDITY IN PERCENT
WIND   - DIRECTION AND SPEED IN MILES PER HOUR (MPH)
VRB    - VARIABLE WIND DIRECTION
PRES   - MEAN SEA LEVEL PRESSURE IN INCHES OF MERCURY
         F - FALLING PRESSURE   R - RISING PRESSURE
         S - STEADY PRESSURE
VSB    - VISIBILITY IN MILES
HX     - HEAT INDEX IN FAHRENHEIT
WCI    - WIND CHILL INDEX IN FAHRENHEIT
TC     - TEMPERATURE IN CELSIUS WHICH IS ALSO KNOWN AS
         TEMPERATURE IN CENTIGRADE
AFB    - AIR FORCE BASE
         LUKE AFB IS LUKE AIR FORCE BASE
         DAVIS-MONTHAN IS DAVIS-MONTHAN AIR FORCE BASE
NAS    - NAVAL AIR STATION
         EL CENTRO NAS IS EL CENTRO NAVAL AIR STATION
N/A    - NOT AVAILABLE


USA.gov is the U.S. government's official web portal to all federal, state and local government web resources and services.